• In Russia
  • List of Countries
  • For 7 days
  • Water Temperature
  • Weather Map
  • Weather Widgets
  • user-avatar
    Login

    Hourly Weather Mauritius

    Today, 22 November, Friday

    Time Temperature Precipitation Wind Pressure Humidity
    00:00 +25°C° 0 mm 2 mps 723 mmHg 82%
    01:00 +25°C° 0 mm 2 mps 723 mmHg 83%
    02:00 +25°C° 0 mm 2 mps 722 mmHg 84%
    03:00 +24°C° 0 mm 3 mps 722 mmHg 85%
    04:00 +24°C° 0 mm 3 mps 722 mmHg 85%
    05:00 +25°C° 0 mm 3 mps 722 mmHg 83%
    06:00 +25°C° 0 mm 3 mps 722 mmHg 81%
    07:00 +26°C° 0 mm 4 mps 722 mmHg 79%
    08:00 +26°C° 0 mm 4 mps 722 mmHg 74%
    09:00 +27°C° 0 mm 4 mps 723 mmHg 70%
    10:00 +28°C° 0 mm 4 mps 723 mmHg 66%
    11:00 +28°C° 0.1 mm 4 mps 722 mmHg 65%
    12:00 +29°C° 0.1 mm 4 mps 722 mmHg 63%
    13:00 +29°C° 0.1 mm 4 mps 722 mmHg 62%
    14:00 +29°C° 0.1 mm 4 mps 722 mmHg 63%
    15:00 +29°C° 0.1 mm 4 mps 722 mmHg 64%
    16:00 +28°C° 0.1 mm 4 mps 721 mmHg 65%
    17:00 +28°C° 0 mm 4 mps 722 mmHg 68%
    18:00 +27°C° 0 mm 3 mps 722 mmHg 71%
    19:00 +26°C° 0 mm 3 mps 722 mmHg 74%
    20:00 +26°C° 0 mm 3 mps 722 mmHg 76%
    21:00 +26°C° 0 mm 3 mps 723 mmHg 78%
    22:00 +26°C° 0 mm 4 mps 723 mmHg 80%
    23:00 +25°C° 0 mm 4 mps 722 mmHg 81%

    Tomorrow, 23 November, Saturday

    Time Temperature Precipitation Wind Pressure Humidity
    00:00 +25°C° 0 mm 4 mps 722 mmHg 81%
    01:00 +25°C° 0 mm 4 mps 721 mmHg 81%
    02:00 +25°C° 0 mm 4 mps 721 mmHg 82%
    03:00 +25°C° 0 mm 4 mps 721 mmHg 83%
    04:00 +25°C° 0 mm 4 mps 721 mmHg 84%
    05:00 +25°C° 0 mm 4 mps 721 mmHg 82%
    06:00 +25°C° 0 mm 4 mps 722 mmHg 81%
    07:00 +26°C° 0 mm 4 mps 722 mmHg 79%
    08:00 +27°C° 0 mm 4 mps 722 mmHg 74%
    09:00 +27°C° 0 mm 4 mps 723 mmHg 69%
    10:00 +28°C° 0 mm 4 mps 723 mmHg 65%
    11:00 +28°C° 0.1 mm 4 mps 723 mmHg 64%
    12:00 +28°C° 0.1 mm 4 mps 722 mmHg 63%
    13:00 +29°C° 0.1 mm 4 mps 722 mmHg 62%
    14:00 +28°C° 0.4 mm 4 mps 722 mmHg 63%
    15:00 +28°C° 0.4 mm 3 mps 721 mmHg 65%
    16:00 +28°C° 0.4 mm 3 mps 721 mmHg 66%
    17:00 +27°C° 1 mm 3 mps 721 mmHg 68%
    18:00 +27°C° 1 mm 2 mps 722 mmHg 70%
    19:00 +26°C° 1 mm 1 mps 722 mmHg 72%
    20:00 +26°C° 0 mm 2 mps 722 mmHg 73%
    21:00 +26°C° 0 mm 2 mps 722 mmHg 75%
    22:00 +26°C° 0 mm 2 mps 722 mmHg 76%
    23:00 +26°C° 0.4 mm 2 mps 722 mmHg 77%

    Day after tomorrow, 24 November, Sunday

    Time Temperature Precipitation Wind Pressure Humidity
    00:00 +25°C° 0.4 mm 2 mps 722 mmHg 78%
    01:00 +25°C° 0.4 mm 2 mps 721 mmHg 79%
    02:00 +25°C° 1.2 mm 2 mps 721 mmHg 79%
    03:00 +25°C° 1.2 mm 1 mps 721 mmHg 78%
    04:00 +25°C° 1.2 mm 1 mps 721 mmHg 78%
    05:00 +25°C° 0.7 mm 1 mps 721 mmHg 77%
    06:00 +25°C° 0.7 mm 1 mps 722 mmHg 76%
    07:00 +25°C° 0.7 mm 1 mps 722 mmHg 75%
    08:00 +26°C° 0.9 mm 1 mps 722 mmHg 74%
    09:00 +26°C° 0.9 mm 2 mps 723 mmHg 73%
    10:00 +26°C° 0.9 mm 2 mps 723 mmHg 72%
    11:00 +26°C° 1 mm 2 mps 723 mmHg 72%
    12:00 +26°C° 1 mm 2 mps 722 mmHg 72%
    13:00 +26°C° 1 mm 2 mps 722 mmHg 71%
    14:00 +26°C° 0.5 mm 2 mps 722 mmHg 71%
    15:00 +26°C° 0.5 mm 1 mps 722 mmHg 72%
    16:00 +26°C° 0.5 mm 1 mps 721 mmHg 72%
    17:00 +26°C° 0.5 mm 1 mps 722 mmHg 73%
    18:00 +26°C° 0.5 mm 1 mps 722 mmHg 75%
    19:00 +25°C° 0.5 mm 1 mps 722 mmHg 76%
    20:00 +25°C° 0.2 mm 1 mps 723 mmHg 77%
    21:00 +23°C° 0.2 mm 0 mps 723 mmHg 78%
    22:00 +23°C° 0.2 mm 0 mps 723 mmHg 78%
    23:00 +23°C° 0.2 mm 0 mps 723 mmHg 79%

    25 November, Monday

    Time Temperature Precipitation Wind Pressure Humidity
    00:00 +23°C° 0.2 mm 0 mps 722 mmHg 80%
    01:00 +23°C° 0.2 mm 0 mps 722 mmHg 81%
    02:00 +22°C° 0.4 mm 0 mps 722 mmHg 81%
    03:00 +24°C° 0.4 mm 1 mps 721 mmHg 82%
    04:00 +24°C° 0.4 mm 1 mps 721 mmHg 82%
    05:00 +24°C° 0 mm 2 mps 722 mmHg 81%
    06:00 +25°C° 0 mm 2 mps 722 mmHg 80%
    07:00 +25°C° 0 mm 3 mps 722 mmHg 78%
    08:00 +26°C° 0 mm 3 mps 722 mmHg 74%
    09:00 +27°C° 0 mm 3 mps 723 mmHg 70%
    10:00 +28°C° 0 mm 4 mps 723 mmHg 66%
    11:00 +28°C° 0.1 mm 4 mps 723 mmHg 64%
    12:00 +29°C° 0.1 mm 4 mps 723 mmHg 62%
    13:00 +29°C° 0.1 mm 4 mps 722 mmHg 59%
    14:00 +29°C° 0.1 mm 4 mps 722 mmHg 60%
    15:00 +28°C° 0.1 mm 4 mps 722 mmHg 62%
    16:00 +28°C° 0.1 mm 3 mps 721 mmHg 63%
    17:00 +27°C° 0 mm 3 mps 722 mmHg 66%
    18:00 +27°C° 0 mm 3 mps 722 mmHg 69%
    19:00 +26°C° 0 mm 3 mps 722 mmHg 72%
    20:00 +26°C° 0 mm 3 mps 723 mmHg 75%
    21:00 +26°C° 0 mm 3 mps 723 mmHg 77%
    22:00 +25°C° 0 mm 2 mps 723 mmHg 79%
    23:00 +25°C° 0.1 mm 2 mps 723 mmHg 81%

    26 November, Tuesday

    Time Temperature Precipitation Wind Pressure Humidity
    00:00 +25°C° 0.1 mm 2 mps 722 mmHg 82%
    01:00 +25°C° 0.1 mm 2 mps 722 mmHg 84%
    02:00 +25°C° 0.1 mm 2 mps 722 mmHg 84%
    03:00 +24°C° 0.1 mm 2 mps 722 mmHg 84%
    04:00 +24°C° 0.1 mm 2 mps 721 mmHg 84%
    05:00 +25°C° 0.1 mm 3 mps 722 mmHg 83%
    06:00 +25°C° 0.1 mm 3 mps 722 mmHg 81%
    07:00 +25°C° 0.1 mm 3 mps 722 mmHg 79%
    08:00 +26°C° 0 mm 3 mps 723 mmHg 75%
    09:00 +27°C° 0 mm 3 mps 723 mmHg 71%
    10:00 +28°C° 0 mm 4 mps 723 mmHg 67%
    11:00 +28°C° 0.2 mm 4 mps 722 mmHg 65%
    12:00 +28°C° 0.2 mm 4 mps 722 mmHg 64%
    13:00 +29°C° 0.2 mm 3 mps 722 mmHg 63%
    14:00 +28°C° 0.4 mm 3 mps 722 mmHg 65%
    15:00 +28°C° 0.4 mm 3 mps 721 mmHg 66%
    16:00 +28°C° 0.4 mm 3 mps 721 mmHg 68%
    17:00 +27°C° 0.4 mm 3 mps 721 mmHg 70%
    18:00 +27°C° 0.4 mm 2 mps 722 mmHg 73%
    19:00 +26°C° 0.4 mm 2 mps 722 mmHg 76%
    20:00 +26°C° 0.2 mm 2 mps 722 mmHg 77%
    21:00 +26°C° 0.2 mm 2 mps 723 mmHg 78%
    22:00 +25°C° 0.2 mm 2 mps 723 mmHg 79%
    23:00 +25°C° 0.1 mm 2 mps 723 mmHg 80%

    27 November, Wednesday

    Time Temperature Precipitation Wind Pressure Humidity
    00:00 +25°C° 0.1 mm 1 mps 722 mmHg 81%
    01:00 +25°C° 0.1 mm 1 mps 722 mmHg 82%
    02:00 +25°C° 0 mm 1 mps 722 mmHg 82%
    03:00 +25°C° 0 mm 1 mps 721 mmHg 82%
    04:00 +24°C° 0 mm 1 mps 721 mmHg 83%
    05:00 +25°C° 0 mm 1 mps 721 mmHg 81%
    06:00 +25°C° 0 mm 1 mps 722 mmHg 79%
    07:00 +25°C° 0 mm 2 mps 722 mmHg 77%
    08:00 +26°C° 0 mm 2 mps 722 mmHg 71%
    09:00 +27°C° 0 mm 2 mps 723 mmHg 66%
    10:00 +29°C° 0 mm 2 mps 723 mmHg 61%
    11:00 +28°C° 0.3 mm 2 mps 723 mmHg 63%
    12:00 +28°C° 0.3 mm 2 mps 722 mmHg 65%
    13:00 +28°C° 0.3 mm 2 mps 722 mmHg 67%
    14:00 +27°C° 0.4 mm 2 mps 722 mmHg 69%
    15:00 +27°C° 0.4 mm 2 mps 721 mmHg 70%
    16:00 +27°C° 0.4 mm 2 mps 721 mmHg 71%
    17:00 +27°C° 0.3 mm 2 mps 721 mmHg 72%
    18:00 +26°C° 0.3 mm 2 mps 722 mmHg 73%
    19:00 +26°C° 0.3 mm 2 mps 722 mmHg 74%
    20:00 +26°C° 0.2 mm 2 mps 722 mmHg 75%
    21:00 +26°C° 0.2 mm 2 mps 723 mmHg 77%
    22:00 +26°C° 0.2 mm 2 mps 723 mmHg 78%
    23:00 +25°C° 0.2 mm 2 mps 722 mmHg 79%
    Show more